Weather History for Gillette, WY

Change the Weather History Date:

Sunday, September 8, 2013

  Actual Average Record
Temperature  
Mean Temperature 70 °F 62 °F  
Max Temperature 80 °F 78 °F 99 °F (1979)
Min Temperature 60 °F 46 °F 26 °F (1962)
Degree Days  
Heating Degree Days 0 5  
Month to date heating degree days 0 34  
Since 1 July heating degree days 0 91  
Cooling Degree Days 5 2  
Month to date cooling degree days 80 22  
Year to date cooling degree days 602 482  
Growing Degree Days 20 (Base 50)    
Moisture  
Dew Point 60 °F    
Average Humidity 75    
Maximum Humidity 97    
Minimum Humidity 52    
Precipitation  
Precipitation 0.29 in 0.04 in 0.54 in (1933)
Month to date precipitation 0.87 0.29  
Year to date precipitation 14.30 10.77  
Sea Level Pressure  
Sea Level Pressure 29.91 in    
Wind  
Wind Speed 5 mph (North)    
Max Wind Speed 26 mph    
Max Gust Speed 32 mph    
Visibility 9 miles    
Events Rain , Thunderstorm    
T = Trace of Precipitation, MM = Missing Value Source: NWS Daily Summary

Daily Weather History Graph

Daily Weather History Graph

Search for Another Location

Airport:

Trip Planner

Search our weather history database for the weather conditions in past years. The results will help you decide how hot, cold, wet, or windy it might be!

Date:

Astronomy

Sep. 08, 2013 Rise Set
Actual Time 6:33 AM MDT 7:25 PM MDT
Civil Twilight 6:03 AM MDT 7:54 PM MDT
Nautical Twilight 5:28 AM MDT 8:29 PM MDT
Astronomical Twilight 4:52 AM MDT 9:06 PM MDT
Moon 10:03 AM MDT (9/8) 8:51 PM MDT (9/8)
Length of Visible Light 13h 50m
Length of Day
12h 51m
Waxing Crescent, 11% of the Moon is Illuminated
Sep 8
Waxing Crescent
Sep 12
First Quarter
Sep 19
Full
Sep 26
Last Quarter
Oct 4
New

Hourly Weather History & Observations

Time (MDT) Temp. Dew Point Humidity Pressure Visibility Wind Dir Wind Speed Gust Speed Precip Events Conditions
12:53 AM 66.9 °F 60.1 °F 79% 29.88 in 10.0 mi NNW 8.1 mph - N/A   Clear
1:53 AM 64.9 °F 57.9 °F 78% 29.87 in 10.0 mi NNW 3.5 mph - N/A   Partly Cloudy
2:53 AM 62.1 °F 57.0 °F 84% 29.90 in 10.0 mi NW 4.6 mph - N/A   Clear
3:53 AM 61.0 °F 57.0 °F 87% 29.89 in 10.0 mi Calm Calm - N/A   Clear
4:53 AM 61.0 °F 59.0 °F 93% 29.91 in 10.0 mi NNW 6.9 mph - N/A   Clear
5:13 AM 62.6 °F 60.8 °F 94% 30.05 in 10.0 mi North 5.8 mph - N/A   Mostly Cloudy
5:53 AM 62.1 °F 60.1 °F 93% 29.89 in 10.0 mi NNW 6.9 mph - N/A   Overcast
6:19 AM 62.6 °F 60.8 °F 94% 30.05 in 10.0 mi NNW 6.9 mph - N/A   Overcast
6:53 AM 63.0 °F 61.0 °F 93% 29.90 in 10.0 mi North 5.8 mph - N/A   Overcast
7:53 AM 63.0 °F 61.0 °F 93% 29.92 in 10.0 mi North 5.8 mph - N/A   Overcast
8:11 AM 64.4 °F 60.8 °F 88% 30.04 in 10.0 mi NE 4.6 mph - N/A   Overcast
8:32 AM 64.4 °F 60.8 °F 88% 30.05 in 10.0 mi Calm Calm - N/A   Overcast
8:49 AM 62.6 °F 60.8 °F 94% 30.04 in 10.0 mi Calm Calm - N/A   Overcast
8:53 AM 64.0 °F 61.0 °F 90% 29.91 in 10.0 mi NW 4.6 mph - N/A   Overcast
9:38 AM 64.4 °F 60.8 °F 88% 30.05 in 10.0 mi Calm Calm - N/A   Overcast
9:53 AM 64.9 °F 60.1 °F 84% 29.92 in 10.0 mi Calm Calm - N/A   Overcast
10:53 AM 66.9 °F 61.0 °F 81% 29.90 in 10.0 mi WNW 6.9 mph - N/A   Overcast
11:34 AM 69.8 °F 60.8 °F 73% 30.02 in 10.0 mi Calm Calm - N/A   Overcast
11:53 AM 71.1 °F 60.1 °F 68% 29.89 in 10.0 mi Calm Calm - N/A   Overcast
12:16 PM 73.4 °F 60.8 °F 65% 30.01 in 10.0 mi Calm Calm - N/A   Scattered Clouds
12:53 PM 75.9 °F 60.1 °F 58% 29.85 in 10.0 mi NE 5.8 mph - N/A   Clear
1:53 PM 78.1 °F 59.0 °F 52% 29.84 in 10.0 mi Calm Calm - N/A   Scattered Clouds
2:53 PM 75.9 °F 60.1 °F 58% 29.83 in 10.0 mi NE 4.6 mph - N/A   Mostly Cloudy
3:53 PM 79.0 °F 60.1 °F 52% 29.79 in 10.0 mi NE 8.1 mph - N/A   Partly Cloudy
4:53 PM 75.9 °F 61.0 °F 60% 29.76 in 10.0 mi NE 10.4 mph - N/A   Clear
5:34 PM 73.4 °F 60.8 °F 65% 29.90 in 10.0 mi NNE 10.4 mph - N/A Thunderstorm Clear
5:53 PM 73.0 °F 60.1 °F 64% 29.79 in 10.0 mi WSW 9.2 mph - N/A Thunderstorm Thunderstorm
5:58 PM 69.8 °F 62.6 °F 78% 29.94 in 1.2 mi West 21.9 mph 32.2 mph 0.00 in Rain , Thunderstorm Thunderstorms and Rain
6:13 PM 64.4 °F 62.6 °F 94% 29.96 in 3.0 mi NNW 9.2 mph - 0.09 in Rain , Thunderstorm Light Thunderstorms and Rain
6:22 PM 64.4 °F 62.6 °F 94% 29.91 in 2.0 mi North 10.4 mph - 0.22 in Rain , Thunderstorm Light Thunderstorms and Rain
6:30 PM 66.2 °F 64.4 °F 94% 29.92 in 10.0 mi NNE 4.6 mph - 0.23 in Rain , Thunderstorm Light Thunderstorms and Rain
6:38 PM 66.2 °F 62.6 °F 88% 29.94 in 10.0 mi North 3.5 mph - 0.23 in Thunderstorm Scattered Clouds
6:53 PM 66.0 °F 64.0 °F 93% 29.82 in 10.0 mi NNW 6.9 mph - 0.23 in   Partly Cloudy
7:12 PM 62.6 °F 59.0 °F 88% 29.94 in 10.0 mi NW 13.8 mph 24.2 mph N/A   Mostly Cloudy
7:48 PM 62.6 °F 57.2 °F 82% 29.95 in 10.0 mi North 10.4 mph - N/A   Overcast
7:53 PM 62.1 °F 59.0 °F 90% 29.86 in 10.0 mi North 9.2 mph - N/A   Overcast
8:53 PM 62.1 °F 60.1 °F 93% 29.84 in 7.0 mi North 5.8 mph - 0.01 in Rain Light Rain
9:36 PM 60.8 °F 59.0 °F 94% 29.97 in 10.0 mi Calm Calm - 0.05 in   Overcast
9:53 PM 61.0 °F 59.0 °F 93% 29.86 in 10.0 mi East 3.5 mph - 0.05 in   Mostly Cloudy
10:00 PM 60.8 °F 59.0 °F 94% 29.95 in 10.0 mi SE 4.6 mph - N/A   Scattered Clouds
10:43 PM 60.8 °F 59.0 °F 94% 29.95 in 10.0 mi North 3.5 mph - N/A   Overcast
10:53 PM 61.0 °F 57.9 °F 90% 29.86 in 10.0 mi Calm Calm - N/A   Overcast
11:18 PM 60.8 °F 57.2 °F 88% 29.94 in 10.0 mi SSW 4.6 mph - N/A   Overcast
11:53 PM 60.1 °F 59.0 °F 96% 29.79 in 10.0 mi South 8.1 mph - N/A   Mostly Cloudy